Regional Weather Roundup
Issued by NWS

Home | Current Version | Previous Version | Graphics & Text | Print | Product List | Glossary On
Versions: 1 2 3 4 5 6 7 8 9 10 11 12 13 14 15 16 17 18 19 20 21 22 23 24 25 26 27
000
ASUS45 KPSR 240610
RWRAZ

ARIZONA HOURLY REGIONAL WEATHER ROUNDUP
NATIONAL WEATHER SERVICE PHOENIX AZ
1100 PM MST MON MAY 23 2016

NOTE: FAIR INDICATES FEW OR NO CLOUDS BELOW 12,000 FEET WITH NO
SIGNIFICANT WEATHER AND/OR OBSTRUCTIONS TO VISIBILITY.

AZZ001>003-036-240700-
NORTHWEST ARIZONA

CITY           SKY/WX    TMP DP  RH WIND       PRES   REMARKS
BULLHEAD CITY  CLEAR     81  18   9 SE16      29.69S
KINGMAN        CLEAR     64  19  17 S12       29.82S
6HR MIN TEMP:  60; 6HR MAX TEMP:  78;

$$

AZZ004>008-015-016-018-240700-
NORTH CENTRAL ARIZONA

CITY           SKY/WX    TMP DP  RH WIND       PRES   REMARKS
GRAND CANYON   CLEAR     50  21  32 S6        29.98S
6HR MIN TEMP:  49; 6HR MAX TEMP:  68;

WILLIAMS       CLEAR     50  21  32 S12       30.06S
PRESCOTT       CLEAR     56  23  27 CALM      29.93S
6HR MIN TEMP:  56; 6HR MAX TEMP:  71;

FLAGSTAFF      CLEAR     43  22  43 W3        30.01S
6HR MIN TEMP:  43; 6HR MAX TEMP:  62;

PAYSON         CLEAR     59  18  20 S3        29.98S
PAGE           CLEAR     70  15  12 SW10      29.79S
6HR MIN TEMP:  70; 6HR MAX TEMP:  79;

$$

AZZ009>014-017-240700-
NORTHEAST ARIZONA

CITY           SKY/WX    TMP DP  RH WIND       PRES   REMARKS
WINSLOW        CLEAR     53  17  24 S8        29.93F
6HR MIN TEMP:  51; 6HR MAX TEMP:  78;

SAINT JOHNS    CLEAR     55  24  30 CALM      29.97S
6HR MIN TEMP:  54; 6HR MAX TEMP:  76;

WINDOW ROCK    CLEAR     51  15  23 CALM      30.02R
6HR MIN TEMP:  51; 6HR MAX TEMP:  72;

SHOW LOW       CLEAR     48  23  37 S7        30.02S
$$

AZZ023-240700-
GREATER PHOENIX AREA

CITY           SKY/WX    TMP DP  RH WIND       PRES   REMARKS
PHOENIX        CLEAR     79  27  14 SW7       29.74S
6HR MIN TEMP:  78; 6HR MAX TEMP:  89;

BUCKEYE        CLEAR     72  32  23 S7        29.78R
LUKE AFB       CLEAR     77  30  18 SW10      29.75R
6HR MIN TEMP:  75; 6HR MAX TEMP:  88;

DEER VALLEY    CLEAR     78  26  14 SW10      29.76S
6HR MIN TEMP:  78; 6HR MAX TEMP:  86;

SCOTTSDALE     CLEAR     78  28  16 W5        29.78S
6HR MIN TEMP:  78; 6HR MAX TEMP:  86;

MESA-GATEWAY   CLEAR     73  30  20 SW7       29.79R
$$

AZZ027-028-240700-
SOUTHWEST MARICOPA COUNTY AND PINAL COUNTY

CITY           SKY/WX    TMP DP  RH WIND       PRES   REMARKS
CASA GRANDE    CLEAR     73  27  17 S13       29.81R
6HR MIN TEMP:  73; 6HR MAX TEMP:  90;

GILA BEND      CLEAR     74  26  16 S9        29.75R
6HR MIN TEMP:  74; 6HR MAX TEMP:  90;

$$

AZZ503-504-507>509-240700-
SOUTHEAST ARIZONA

CITY           SKY/WX    TMP DP  RH WIND       PRES   REMARKS
TUCSON         CLEAR     73  26  17 SW5       29.89R
6HR MIN TEMP:  73; 6HR MAX TEMP:  89;

DAVIS-MONTHAN  CLEAR     72  27  18 SW3       29.88R
6HR MIN TEMP:  72; 6HR MAX TEMP:  89;

NOGALES        CLEAR     64  29  26 SE7       29.95S
6HR MIN TEMP:  64; 6HR MAX TEMP:  84;

SIERRA VISTA   CLEAR     67  27  22 SW16      29.99S
6HR MIN TEMP:  67; 6HR MAX TEMP:  81;

DOUGLAS        CLEAR     68  29  23 SW14      29.97R
6HR MIN TEMP:  66; 6HR MAX TEMP:  86;

SAFFORD        CLEAR     73  27  18 NW10      29.85R
6HR MIN TEMP:  73; 6HR MAX TEMP:  90;

$$

AZZ020-021-025-026-031-240700-
SOUTHWEST ARIZONA

CITY           SKY/WX    TMP DP  RH WIND       PRES   REMARKS
YUMA           CLEAR     72  35  25 W10       29.77R
6HR MIN TEMP:  72; 6HR MAX TEMP:  87;

$$

CAZ031-033-041-043-047-048-061-240700-
SOUTHERN CALIFORNIA

CITY           SKY/WX    TMP DP  RH WIND       PRES   REMARKS
DOWNTOWN L.A.  PTCLDY    61  53  75 CALM      29.93R
6HR MIN TEMP:  61; 6HR MAX TEMP:  69;

L.A. AIRPORT   MOCLDY    58  53  84 SW7       29.94R
6HR MIN TEMP:  58; 6HR MAX TEMP:  66;

SAN DIEGO      CLOUDY    63  49  60 S7        29.97R
6HR MIN TEMP:  62; 6HR MAX TEMP:  65;

BURBANK        PTCLDY    60  48  64 S7        29.92R
6HR MIN TEMP:  60; 6HR MAX TEMP:  69;

ONTARIO        MOCLDY    57  48  72 W10       29.93R
6HR MIN TEMP:  57; 6HR MAX TEMP:  70;

RIVERSIDE      MOCLDY    58  48  69 N5        29.93R
6HR MIN TEMP:  58; 6HR MAX TEMP:  73;

PALM SPRINGS   CLEAR     69  45  41 NW12G17   29.76S
6HR MIN TEMP:  69; 6HR MAX TEMP:  85;

EL CENTRO NAS  CLEAR     69  39  33 W21       29.78R
6HR MIN TEMP:  69; 6HR MAX TEMP:  88;

IMPERIAL       CLEAR     69  40  34 W16G25    29.75R
6HR MIN TEMP:  69; 6HR MAX TEMP:  88;

BLYTHE         CLEAR     78  43  28 SW20      29.71S
6HR MIN TEMP:  78; 6HR MAX TEMP:  89;

NEEDLES        CLEAR     79  26  14 SW15      29.68S
6HR MIN TEMP:  79; 6HR MAX TEMP:  90;

$$

NVZ020-UTZ003-240700-
SOUTHERN NEVADA-UTAH

CITY           SKY/WX    TMP DP  RH WIND       PRES   REMARKS
LAS VEGAS      CLEAR     73  30  20 SW13G20   29.68S
6HR MIN TEMP:  73; 6HR MAX TEMP:  82;

SALT LAKE CITY PTCLDY    53  41  63 W6        29.82S
6HR MIN TEMP:  53; 6HR MAX TEMP:  70;

$$

NMZ009-TXZ055-240700-
NEW MEXICO-WEST TEXAS

CITY           SKY/WX    TMP DP  RH WIND       PRES   REMARKS
ALBUQUERQUE    CLEAR     61  14  16 SE7       29.94R
6HR MIN TEMP:  61; 6HR MAX TEMP:  85;

EL PASO        PTCLDY    80  19  10 W24G36    29.89S
6HR MIN TEMP:  80; 6HR MAX TEMP:  91;

$$


........................KEY........................
SKY/WX - SKY CONDITION/WEATHER
TMP    - TEMPERATURE IN FAHRENHEIT
DP     - DEW POINT IN FAHRENHEIT
RH     - RELATIVE HUMIDITY IN PERCENT
WIND   - DIRECTION AND SPEED IN MILES PER HOUR (MPH)
VRB    - VARIABLE WIND DIRECTION
PRES   - MEAN SEA LEVEL PRESSURE IN INCHES OF MERCURY
         F - FALLING PRESSURE   R - RISING PRESSURE
         S - STEADY PRESSURE
VSB    - VISIBILITY IN MILES
HX     - HEAT INDEX IN FAHRENHEIT
WCI    - WIND CHILL INDEX IN FAHRENHEIT
TC     - TEMPERATURE IN CELSIUS WHICH IS ALSO KNOWN AS
         TEMPERATURE IN CENTIGRADE
AFB    - AIR FORCE BASE
         LUKE AFB IS LUKE AIR FORCE BASE
         DAVIS-MONTHAN IS DAVIS-MONTHAN AIR FORCE BASE
NAS    - NAVAL AIR STATION
         EL CENTRO NAS IS EL CENTRO NAVAL AIR STATION
N/A    - NOT AVAILABLE





USA.gov is the U.S. government's official web portal to all federal, state and local government web resources and services.